ラーセン彗星

200P/Larsen (1997)

English version
Home page
Total 6,336 html files since Dec. 4, 1995
Updated on June 14, 2008

---------------------------------------------------------------------

・ プロフィール

符号 200P/1997 V1
発見日 1997年11月3日
発見光度 16.6等
発見者 Jeff Larsen (Kitt Peak)

・ 軌道要素

Epoch 1997 Sept. 29.0 TT = JDT 2450720.5
T 1997 Sept. 14.8599 TT                                 MPC
q   3.293043             (2000.0)            P               Q
n   0.0900133      Peri.  132.8109      +0.9777897      -0.1208669
a   4.930961       Node   234.8430      +0.0696787      +0.9579599
e   0.332170       Incl.   12.0890      +0.1976669      +0.2602001
P  10.9
From 266 observations 1997-2008, mean residual 0".5.

・ 星図

・ 光度変化

        m1 = -6.5 + 5 logΔ + 40.0 log r

---------------------------------------------------------------------

軌道要素はM.P.E.C. 2008-L45に掲載されたものです。
星図は StellaNavigator Ver.2.0 for Windows (アストロアーツ 編著 / アスキー出版局刊) で作成したものです。
光度グラフはComet for Windowsで作成したものです。

---------------------------------------------------------------------

Copyright(C) 1995-2008 Seiichi Yoshida (comet@aerith.net). All rights reserved.